When you browse on this site, cookies collect data to enhance your experience and personalize the content and advertising you see.
Visit our Privacy Policy to learn more. By continuing to use the site, you agree to this use of cookies and data.
  • In United Kingdom
  • List of Countries
  • For 7 days
  • Water Temperature
  • Weather Map
  • Weather Widgets
  • user-avatar
    Login

    Hourly Weather Cheshunt

    Today, 7 April, Tuesday

    Time Temperature Precipitation Wind Pressure Humidity
    00:00 +9°C° 0 mm 1 mps 766 mmHg 85%
    01:00 +8°C° 0 mm 1 mps 767 mmHg 84%
    02:00 +8°C° 0 mm 1 mps 767 mmHg 84%
    03:00 +8°C° 0 mm 1 mps 767 mmHg 84%
    04:00 +8°C° 0 mm 1 mps 768 mmHg 85%
    05:00 +8°C° 0 mm 1 mps 768 mmHg 86%
    06:00 +7°C° 0 mm 1 mps 768 mmHg 87%
    07:00 +9°C° 0 mm 1 mps 769 mmHg 81%
    08:00 +10°C° 0 mm 2 mps 769 mmHg 75%
    09:00 +13°C° 0 mm 2 mps 769 mmHg 70%
    10:00 +15°C° 0 mm 2 mps 769 mmHg 64%
    11:00 +16°C° 0 mm 3 mps 768 mmHg 58%
    12:00 +17°C° 0 mm 3 mps 768 mmHg 52%
    13:00 +17°C° 0 mm 3 mps 768 mmHg 52%
    14:00 +17°C° 0 mm 3 mps 768 mmHg 51%
    15:00 +17°C° 0 mm 3 mps 767 mmHg 51%
    16:00 +16°C° 0 mm 3 mps 767 mmHg 57%
    17:00 +14°C° 0 mm 3 mps 767 mmHg 63%
    18:00 +14°C° 0 mm 2 mps 767 mmHg 70%
    19:00 +13°C° 0 mm 2 mps 767 mmHg 69%
    20:00 +12°C° 0 mm 2 mps 767 mmHg 69%
    21:00 +12°C° 0 mm 2 mps 767 mmHg 69%
    22:00 +12°C° 0 mm 2 mps 767 mmHg 71%
    23:00 +10°C° 0 mm 2 mps 767 mmHg 72%

    Tomorrow, 8 April, Wednesday

    Time Temperature Precipitation Wind Pressure Humidity
    00:00 +10°C° 0 mm 2 mps 766 mmHg 74%
    01:00 +10°C° 0 mm 2 mps 766 mmHg 75%
    02:00 +10°C° 0 mm 2 mps 766 mmHg 76%
    03:00 +11°C° 0 mm 1 mps 765 mmHg 77%
    04:00 +11°C° 0 mm 1 mps 765 mmHg 78%
    05:00 +10°C° 0 mm 2 mps 765 mmHg 79%
    06:00 +10°C° 0 mm 2 mps 765 mmHg 79%
    07:00 +13°C° 0 mm 1 mps 765 mmHg 78%
    08:00 +14°C° 0 mm 1 mps 765 mmHg 76%
    09:00 +15°C° 0 mm 1 mps 765 mmHg 74%
    10:00 +18°C° 0 mm 1 mps 764 mmHg 70%
    11:00 +19°C° 0 mm 1 mps 764 mmHg 66%
    12:00 +21°C° 0 mm 1 mps 764 mmHg 61%
    13:00 +21°C° 0.4 mm 1 mps 764 mmHg 61%
    14:00 +20°C° 0.4 mm 2 mps 764 mmHg 60%
    15:00 +20°C° 0.4 mm 2 mps 763 mmHg 60%
    16:00 +19°C° 0.3 mm 2 mps 763 mmHg 65%
    17:00 +18°C° 0.3 mm 2 mps 763 mmHg 69%
    18:00 +18°C° 0.3 mm 1 mps 763 mmHg 73%
    19:00 +16°C° 0 mm 1 mps 763 mmHg 76%
    20:00 +15°C° 0 mm 1 mps 764 mmHg 78%
    21:00 +15°C° 0 mm 1 mps 764 mmHg 80%
    22:00 +14°C° 0 mm 1 mps 764 mmHg 82%
    23:00 +13°C° 0 mm 1 mps 764 mmHg 84%

    Day after tomorrow, 9 April, Thursday

    Time Temperature Precipitation Wind Pressure Humidity
    00:00 +13°C° 0 mm 1 mps 764 mmHg 86%
    01:00 +13°C° 0 mm 1 mps 764 mmHg 87%
    02:00 +12°C° 0 mm 1 mps 764 mmHg 88%
    03:00 +12°C° 0 mm 1 mps 764 mmHg 89%
    04:00 +12°C° 0 mm 1 mps 764 mmHg 91%
    05:00 +11°C° 0 mm 1 mps 764 mmHg 92%
    06:00 +11°C° 0 mm 1 mps 764 mmHg 93%
    07:00 +13°C° 0 mm 1 mps 764 mmHg 88%
    08:00 +14°C° 0 mm 2 mps 764 mmHg 84%
    09:00 +16°C° 0 mm 2 mps 765 mmHg 79%
    10:00 +17°C° 0 mm 2 mps 765 mmHg 76%
    11:00 +18°C° 0 mm 2 mps 765 mmHg 72%
    12:00 +19°C° 0 mm 3 mps 765 mmHg 69%
    13:00 +19°C° 0.1 mm 3 mps 765 mmHg 69%
    14:00 +18°C° 0.1 mm 3 mps 764 mmHg 70%
    15:00 +18°C° 0.1 mm 3 mps 764 mmHg 70%
    16:00 +17°C° 0.1 mm 3 mps 764 mmHg 74%
    17:00 +15°C° 0.1 mm 4 mps 764 mmHg 77%
    18:00 +14°C° 0.1 mm 4 mps 764 mmHg 80%
    19:00 +12°C° 0 mm 4 mps 764 mmHg 81%
    20:00 +11°C° 0 mm 4 mps 765 mmHg 82%
    21:00 +10°C° 0 mm 4 mps 765 mmHg 83%
    22:00 +10°C° 0 mm 3 mps 765 mmHg 85%
    23:00 +9°C° 0 mm 3 mps 765 mmHg 87%

    10 April, Friday

    Time Temperature Precipitation Wind Pressure Humidity
    00:00 +9°C° 0 mm 3 mps 765 mmHg 89%
    01:00 +9°C° 0 mm 3 mps 764 mmHg 88%
    02:00 +9°C° 0 mm 3 mps 764 mmHg 88%
    03:00 +10°C° 0 mm 3 mps 764 mmHg 87%
    04:00 +10°C° 0 mm 3 mps 764 mmHg 88%
    05:00 +10°C° 0 mm 2 mps 764 mmHg 89%
    06:00 +10°C° 0 mm 2 mps 764 mmHg 90%
    07:00 +12°C° 0.2 mm 2 mps 763 mmHg 88%
    08:00 +13°C° 0.2 mm 2 mps 763 mmHg 87%
    09:00 +14°C° 0.2 mm 2 mps 763 mmHg 85%
    10:00 +16°C° 0.1 mm 2 mps 763 mmHg 80%
    11:00 +17°C° 0.1 mm 2 mps 763 mmHg 75%
    12:00 +19°C° 0.1 mm 2 mps 762 mmHg 69%
    13:00 +19°C° 0.2 mm 2 mps 762 mmHg 67%
    14:00 +20°C° 0.2 mm 2 mps 762 mmHg 65%
    15:00 +20°C° 0.2 mm 3 mps 761 mmHg 63%
    16:00 +19°C° 0.3 mm 2 mps 761 mmHg 67%
    17:00 +18°C° 0.3 mm 2 mps 761 mmHg 71%
    18:00 +17°C° 0.3 mm 2 mps 760 mmHg 75%
    19:00 +16°C° 0.1 mm 2 mps 760 mmHg 77%
    20:00 +16°C° 0.1 mm 1 mps 761 mmHg 78%
    21:00 +15°C° 0.1 mm 1 mps 761 mmHg 79%
    22:00 +15°C° 0.1 mm 1 mps 761 mmHg 80%
    23:00 +15°C° 0.1 mm 1 mps 761 mmHg 81%

    11 April, Saturday

    Time Temperature Precipitation Wind Pressure Humidity
    00:00 +14°C° 0.1 mm 1 mps 761 mmHg 82%
    01:00 +14°C° 0.1 mm 1 mps 760 mmHg 83%
    02:00 +14°C° 0.1 mm 2 mps 760 mmHg 84%
    03:00 +14°C° 0.1 mm 2 mps 760 mmHg 85%
    04:00 +14°C° 0 mm 2 mps 760 mmHg 84%
    05:00 +14°C° 0 mm 2 mps 760 mmHg 84%
    06:00 +13°C° 0 mm 1 mps 760 mmHg 83%
    07:00 +14°C° 0 mm 2 mps 760 mmHg 82%
    08:00 +15°C° 0 mm 2 mps 760 mmHg 80%
    09:00 +16°C° 0 mm 2 mps 760 mmHg 78%
    10:00 +16°C° 0.1 mm 3 mps 761 mmHg 75%
    11:00 +17°C° 0.1 mm 3 mps 761 mmHg 72%
    12:00 +18°C° 0.1 mm 3 mps 761 mmHg 68%
    13:00 +18°C° 0.1 mm 3 mps 761 mmHg 69%
    14:00 +18°C° 0.1 mm 4 mps 761 mmHg 69%
    15:00 +18°C° 0.1 mm 4 mps 760 mmHg 69%
    16:00 +17°C° 0 mm 3 mps 760 mmHg 71%
    17:00 +16°C° 0 mm 3 mps 760 mmHg 72%
    18:00 +14°C° 0 mm 3 mps 760 mmHg 74%
    19:00 +12°C° 0 mm 3 mps 761 mmHg 76%
    20:00 +11°C° 0 mm 3 mps 761 mmHg 78%
    21:00 +10°C° 0 mm 2 mps 761 mmHg 80%
    22:00 +9°C° 0 mm 2 mps 761 mmHg 77%
    23:00 +9°C° 0 mm 2 mps 761 mmHg 75%

    12 April, Sunday

    Time Temperature Precipitation Wind Pressure Humidity
    00:00 +8°C° 0 mm 2 mps 760 mmHg 73%
    01:00 +9°C° 0 mm 1 mps 760 mmHg 71%
    02:00 +8°C° 0 mm 1 mps 759 mmHg 68%
    03:00 +8°C° 0 mm 1 mps 759 mmHg 66%
    04:00 +8°C° 0 mm 1 mps 758 mmHg 65%
    05:00 +8°C° 0 mm 1 mps 758 mmHg 64%
    06:00 +8°C° 0 mm 1 mps 758 mmHg 64%
    07:00 +10°C° 0 mm 1 mps 757 mmHg 60%
    08:00 +12°C° 0 mm 2 mps 757 mmHg 56%
    09:00 +14°C° 0 mm 2 mps 756 mmHg 52%
    10:00 +15°C° 0 mm 2 mps 756 mmHg 48%
    11:00 +16°C° 0 mm 3 mps 755 mmHg 44%
    12:00 +18°C° 0 mm 3 mps 754 mmHg 40%
    13:00 +18°C° 0 mm 3 mps 754 mmHg 40%
    14:00 +18°C° 0 mm 3 mps 753 mmHg 40%
    15:00 +18°C° 0 mm 3 mps 753 mmHg 41%
    16:00 +17°C° 0 mm 3 mps 753 mmHg 47%
    17:00 +14°C° 0 mm 3 mps 753 mmHg 54%
    18:00 +14°C° 0 mm 2 mps 752 mmHg 60%
    19:00 +13°C° 0 mm 2 mps 753 mmHg 66%
    20:00 +10°C° 0 mm 2 mps 753 mmHg 72%
    21:00 +8°C° 0 mm 2 mps 753 mmHg 77%
    22:00 +8°C° 0 mm 2 mps 754 mmHg 79%
    23:00 +9°C° 0 mm 1 mps 754 mmHg 81%
    Show more